Year,Month,Day,Hour,Minute,Value (Times are PST for insolation in W/m^2)
2012,03,15,00,00,18.00
2012,03,15,00,01,17.10
2012,03,15,00,02,16.00
2012,03,15,00,03,14.80
2012,03,15,00,04,14.00
2012,03,15,00,05,2.80
2012,03,15,00,06,0.00
2012,03,15,00,07,0.00
2012,03,15,00,08,0.00
2012,03,15,00,09,0.00
2012,03,15,00,10,0.00
2012,03,15,00,11,0.00
2012,03,15,00,12,0.00
2012,03,15,00,13,0.00
2012,03,15,00,14,0.00
2012,03,15,00,15,0.00
2012,03,15,00,16,0.00
2012,03,15,00,17,0.00
2012,03,15,00,18,0.00
2012,03,15,00,19,0.00
2012,03,15,00,20,0.00
2012,03,15,00,21,0.00
2012,03,15,00,22,0.00
2012,03,15,00,23,0.00
2012,03,15,00,24,0.00
2012,03,15,00,25,0.00
2012,03,15,00,26,0.00
2012,03,15,00,27,0.00
2012,03,15,00,28,0.00
2012,03,15,00,29,0.00
2012,03,15,00,30,0.00
2012,03,15,00,31,0.00
2012,03,15,00,32,0.00
2012,03,15,00,33,0.00
2012,03,15,00,34,0.00
2012,03,15,00,35,0.00
2012,03,15,00,36,0.00
2012,03,15,00,37,0.00
2012,03,15,00,38,0.00
2012,03,15,00,39,0.00
2012,03,15,00,40,0.00
2012,03,15,00,41,0.00
2012,03,15,00,42,0.00
2012,03,15,00,43,0.00
2012,03,15,00,44,0.00
2012,03,15,00,45,0.00
2012,03,15,00,46,0.00
2012,03,15,00,47,0.00
2012,03,15,00,48,0.00
2012,03,15,00,49,0.00
2012,03,15,00,50,0.00
2012,03,15,00,51,0.00
2012,03,15,00,52,0.00
2012,03,15,00,53,0.00
2012,03,15,00,54,0.00
2012,03,15,00,55,0.00
2012,03,15,00,56,0.00
2012,03,15,00,57,0.00
2012,03,15,00,58,0.00
2012,03,15,00,59,0.00
2012,03,15,01,00,0.00
2012,03,15,01,01,0.00
2012,03,15,01,02,0.00
2012,03,15,01,03,0.00
2012,03,15,01,04,0.00
2012,03,15,01,05,0.00
2012,03,15,01,06,0.00
2012,03,15,01,07,0.00
2012,03,15,01,08,0.00
2012,03,15,01,09,0.00
2012,03,15,01,10,0.00
2012,03,15,01,11,0.00
2012,03,15,01,12,0.00
2012,03,15,01,13,0.00
2012,03,15,01,14,0.00
2012,03,15,01,15,0.00
2012,03,15,01,16,0.00
2012,03,15,01,17,0.00
2012,03,15,01,18,0.00
2012,03,15,01,19,0.00
2012,03,15,01,20,0.00
2012,03,15,01,21,0.00
2012,03,15,01,22,0.00
2012,03,15,01,23,0.00
2012,03,15,01,24,0.00
2012,03,15,01,25,0.00
2012,03,15,01,26,0.00
2012,03,15,01,27,0.00
2012,03,15,01,28,0.00
2012,03,15,01,29,0.00
2012,03,15,01,30,0.00
2012,03,15,01,31,0.00
2012,03,15,01,32,0.00
2012,03,15,01,33,0.00
2012,03,15,01,34,0.00
2012,03,15,01,35,0.00
2012,03,15,01,36,0.00
2012,03,15,01,37,0.00
2012,03,15,01,38,0.00
2012,03,15,01,39,0.00
2012,03,15,01,40,0.00
2012,03,15,01,41,0.00
2012,03,15,01,42,0.00
2012,03,15,01,43,0.00
2012,03,15,01,44,0.00
2012,03,15,01,45,0.00
2012,03,15,01,46,0.00
2012,03,15,01,47,0.00
2012,03,15,01,48,0.00
2012,03,15,01,49,0.00
2012,03,15,01,50,0.00
2012,03,15,01,51,0.00
2012,03,15,01,52,0.00
2012,03,15,01,53,0.00
2012,03,15,01,54,0.00
2012,03,15,01,55,0.00
2012,03,15,01,56,0.00
2012,03,15,01,57,0.00
2012,03,15,01,58,0.00
2012,03,15,01,59,0.00
2012,03,15,02,00,0.00
2012,03,15,02,01,0.00
2012,03,15,02,02,0.00
2012,03,15,02,03,0.00
2012,03,15,02,04,0.00
2012,03,15,02,05,0.00
2012,03,15,02,06,0.00
2012,03,15,02,07,0.00
2012,03,15,02,08,0.00
2012,03,15,02,09,0.00
2012,03,15,02,10,0.00
2012,03,15,02,11,0.00
2012,03,15,02,12,0.00
2012,03,15,02,13,0.00
2012,03,15,02,14,0.00
2012,03,15,02,15,0.00
2012,03,15,02,16,0.00
2012,03,15,02,17,0.00
2012,03,15,02,18,0.00
2012,03,15,02,19,0.00
2012,03,15,02,20,0.00
2012,03,15,02,21,0.00
2012,03,15,02,22,0.00
2012,03,15,02,23,0.00
2012,03,15,02,24,0.00
2012,03,15,02,25,0.00
2012,03,15,02,26,0.00
2012,03,15,02,27,0.00
2012,03,15,02,28,0.00
2012,03,15,02,29,0.00
2012,03,15,02,30,0.00
2012,03,15,02,31,0.00
2012,03,15,02,32,0.00
2012,03,15,02,33,0.00
2012,03,15,02,34,0.00
2012,03,15,02,35,0.00
2012,03,15,02,36,0.00
2012,03,15,02,37,0.00
2012,03,15,02,38,0.00
2012,03,15,02,39,0.00
2012,03,15,02,40,0.00
2012,03,15,02,41,0.00
2012,03,15,02,42,0.00
2012,03,15,02,43,0.00
2012,03,15,02,44,0.00
2012,03,15,02,45,0.00
2012,03,15,02,46,0.00
2012,03,15,02,47,0.00
2012,03,15,02,48,0.00
2012,03,15,02,49,0.00
2012,03,15,02,50,0.00
2012,03,15,02,51,0.00
2012,03,15,02,52,0.00
2012,03,15,02,53,0.00
2012,03,15,02,54,0.00
2012,03,15,02,55,0.00
2012,03,15,02,56,0.00
2012,03,15,02,57,0.00
2012,03,15,02,58,0.00
2012,03,15,02,59,0.00
2012,03,15,03,00,0.00
2012,03,15,03,01,0.00
2012,03,15,03,02,0.00
2012,03,15,03,03,0.00
2012,03,15,03,04,0.00
2012,03,15,03,05,0.00
2012,03,15,03,06,0.00
2012,03,15,03,07,0.00
2012,03,15,03,08,0.00
2012,03,15,03,09,0.00
2012,03,15,03,10,0.00
2012,03,15,03,11,0.00
2012,03,15,03,12,0.00
2012,03,15,03,13,0.00
2012,03,15,03,14,0.00
2012,03,15,03,15,0.00
2012,03,15,03,16,0.00
2012,03,15,03,17,0.00
2012,03,15,03,18,0.00
2012,03,15,03,19,0.00
2012,03,15,03,20,0.00
2012,03,15,03,21,0.00
2012,03,15,03,22,0.00
2012,03,15,03,23,0.00
2012,03,15,03,24,0.00
2012,03,15,03,25,0.00
2012,03,15,03,26,0.00
2012,03,15,03,27,0.00
2012,03,15,03,28,0.00
2012,03,15,03,29,0.00
2012,03,15,03,30,0.00
2012,03,15,03,31,0.00
2012,03,15,03,32,0.00
2012,03,15,03,33,0.00
2012,03,15,03,34,0.00
2012,03,15,03,35,0.00
2012,03,15,03,36,0.00
2012,03,15,03,37,0.00
2012,03,15,03,38,0.00
2012,03,15,03,39,0.00
2012,03,15,03,40,0.00
2012,03,15,03,41,0.00
2012,03,15,03,42,0.00
2012,03,15,03,43,0.00
2012,03,15,03,44,0.00
2012,03,15,03,45,0.00
2012,03,15,03,46,0.00
2012,03,15,03,47,0.00
2012,03,15,03,48,0.00
2012,03,15,03,49,0.00
2012,03,15,03,50,0.00
2012,03,15,03,51,0.00
2012,03,15,03,52,0.00
2012,03,15,03,53,0.00
2012,03,15,03,54,0.00
2012,03,15,03,55,0.00
2012,03,15,03,56,0.00
2012,03,15,03,57,0.00
2012,03,15,03,58,0.00
2012,03,15,03,59,0.00
2012,03,15,04,00,0.00
2012,03,15,04,01,0.00
2012,03,15,04,02,0.00
2012,03,15,04,03,0.00
2012,03,15,04,04,0.00
2012,03,15,04,05,0.00
2012,03,15,04,06,0.00
2012,03,15,04,07,0.00
2012,03,15,04,08,0.00
2012,03,15,04,09,0.00
2012,03,15,04,10,0.00
2012,03,15,04,11,0.00
2012,03,15,04,12,0.00
2012,03,15,04,13,0.00
2012,03,15,04,14,0.00
2012,03,15,04,15,0.00
2012,03,15,04,16,0.00
2012,03,15,04,17,0.00
2012,03,15,04,18,0.00
2012,03,15,04,19,0.00
2012,03,15,04,20,0.00
2012,03,15,04,21,0.00
2012,03,15,04,22,0.00
2012,03,15,04,23,0.00
2012,03,15,04,24,0.00
2012,03,15,04,25,0.00
2012,03,15,04,26,0.00
2012,03,15,04,27,0.00
2012,03,15,04,28,0.00
2012,03,15,04,29,0.00
2012,03,15,04,30,0.00
2012,03,15,04,31,0.00
2012,03,15,04,32,0.00
2012,03,15,04,33,0.00
2012,03,15,04,34,0.00
2012,03,15,04,35,0.00
2012,03,15,04,36,0.00
2012,03,15,04,37,0.00
2012,03,15,04,38,0.00
2012,03,15,04,39,0.00
2012,03,15,04,40,0.00
2012,03,15,04,41,0.00
2012,03,15,04,42,0.00
2012,03,15,04,43,0.00
2012,03,15,04,44,0.00
2012,03,15,04,45,0.00
2012,03,15,04,46,0.00
2012,03,15,04,47,0.00
2012,03,15,04,48,0.00
2012,03,15,04,49,0.00
2012,03,15,04,50,0.00
2012,03,15,04,51,0.00
2012,03,15,04,52,0.00
2012,03,15,04,53,0.00
2012,03,15,04,54,0.00
2012,03,15,04,55,0.00
2012,03,15,04,56,0.00
2012,03,15,04,57,0.00
2012,03,15,04,58,0.00
2012,03,15,04,59,0.00
2012,03,15,05,00,0.00
2012,03,15,05,01,0.00
2012,03,15,05,02,0.00
2012,03,15,05,03,0.00
2012,03,15,05,04,0.00
2012,03,15,05,05,0.00
2012,03,15,05,06,0.00
2012,03,15,05,07,0.00
2012,03,15,05,08,0.00
2012,03,15,05,09,0.00
2012,03,15,05,10,0.00
2012,03,15,05,11,0.00
2012,03,15,05,12,0.00
2012,03,15,05,13,0.00
2012,03,15,05,14,0.00
2012,03,15,05,15,0.00
2012,03,15,05,16,0.00
2012,03,15,05,17,0.00
2012,03,15,05,18,0.00
2012,03,15,05,19,0.00
2012,03,15,05,20,0.00
2012,03,15,05,21,0.00
2012,03,15,05,22,0.00
2012,03,15,05,23,0.00
2012,03,15,05,24,0.00
2012,03,15,05,25,0.00
2012,03,15,05,26,0.00
2012,03,15,05,27,0.00
2012,03,15,05,28,0.00
2012,03,15,05,29,0.00
2012,03,15,05,30,0.00
2012,03,15,05,31,0.00
2012,03,15,05,32,0.00
2012,03,15,05,33,0.00
2012,03,15,05,34,0.00
2012,03,15,05,35,0.00
2012,03,15,05,36,0.00
2012,03,15,05,37,0.00
2012,03,15,05,38,0.00
2012,03,15,05,39,0.00
2012,03,15,05,40,0.00
2012,03,15,05,41,0.00
2012,03,15,05,42,0.00
2012,03,15,05,43,0.00
2012,03,15,05,44,0.00
2012,03,15,05,45,0.00
2012,03,15,05,46,0.00
2012,03,15,05,47,0.00
2012,03,15,05,48,0.00
2012,03,15,05,49,0.00
2012,03,15,05,50,0.00
2012,03,15,05,51,0.00
2012,03,15,05,52,0.00
2012,03,15,05,53,0.00
2012,03,15,05,54,0.00
2012,03,15,05,55,0.00
2012,03,15,05,56,0.00
2012,03,15,05,57,0.00
2012,03,15,05,58,0.00
2012,03,15,05,59,0.00
2012,03,15,06,00,0.00
2012,03,15,06,01,0.00
2012,03,15,06,02,0.00
2012,03,15,06,03,0.00
2012,03,15,06,04,0.00
2012,03,15,06,05,0.00
2012,03,15,06,06,0.00
2012,03,15,06,07,0.00
2012,03,15,06,08,0.00
2012,03,15,06,09,0.00
2012,03,15,06,10,0.00
2012,03,15,06,11,0.00
2012,03,15,06,12,0.00
2012,03,15,06,13,0.00
2012,03,15,06,14,0.00
2012,03,15,06,15,0.00
2012,03,15,06,16,0.00
2012,03,15,06,17,0.00
2012,03,15,06,18,0.00
2012,03,15,06,19,0.00
2012,03,15,06,20,0.00
2012,03,15,06,21,0.00
2012,03,15,06,22,0.00
2012,03,15,06,23,0.00
2012,03,15,06,24,0.00
2012,03,15,06,25,0.00
2012,03,15,06,26,0.00
2012,03,15,06,27,0.00
2012,03,15,06,28,0.00
2012,03,15,06,29,0.00
2012,03,15,06,30,0.00
2012,03,15,06,31,0.00
2012,03,15,06,32,0.00
2012,03,15,06,33,0.00
2012,03,15,06,34,0.00
2012,03,15,06,35,0.00
2012,03,15,06,36,0.00
2012,03,15,06,37,0.00
2012,03,15,06,38,0.00
2012,03,15,06,39,0.00
2012,03,15,06,40,0.00
2012,03,15,06,41,0.00
2012,03,15,06,42,0.00
2012,03,15,06,43,0.00
2012,03,15,06,44,0.00
2012,03,15,06,45,0.00
2012,03,15,06,46,0.00
2012,03,15,06,47,0.00
2012,03,15,06,48,0.00
2012,03,15,06,49,0.00
2012,03,15,06,50,0.00
2012,03,15,06,51,0.00
2012,03,15,06,52,0.00
2012,03,15,06,53,0.00
2012,03,15,06,54,0.00
2012,03,15,06,55,0.00
2012,03,15,06,56,0.00
2012,03,15,06,57,0.00
2012,03,15,06,58,0.00
2012,03,15,06,59,0.00
2012,03,15,07,00,0.00
2012,03,15,07,01,0.00
2012,03,15,07,02,0.00
2012,03,15,07,03,0.00
2012,03,15,07,04,0.00
2012,03,15,07,05,0.00
2012,03,15,07,06,0.00
2012,03,15,07,07,0.00
2012,03,15,07,08,0.00
2012,03,15,07,09,0.00
2012,03,15,07,10,0.00
2012,03,15,07,11,0.00
2012,03,15,07,12,0.00
2012,03,15,07,13,0.00
2012,03,15,07,14,0.00
2012,03,15,07,15,0.00
2012,03,15,07,16,0.00
2012,03,15,07,17,0.00
2012,03,15,07,18,0.00
2012,03,15,07,19,0.00
2012,03,15,07,20,0.00
2012,03,15,07,21,0.00
2012,03,15,07,22,0.00
2012,03,15,07,23,0.00
2012,03,15,07,24,0.00
2012,03,15,07,25,0.00
2012,03,15,07,26,0.00
2012,03,15,07,27,0.00
2012,03,15,07,28,0.00
2012,03,15,07,29,0.00
2012,03,15,07,30,0.00
2012,03,15,07,31,0.00
2012,03,15,07,32,0.00
2012,03,15,07,33,0.00
2012,03,15,07,34,0.00
2012,03,15,07,35,0.00
2012,03,15,07,36,0.00
2012,03,15,07,37,0.00
2012,03,15,07,38,0.00
2012,03,15,07,39,0.00
2012,03,15,07,40,0.00
2012,03,15,07,41,0.00
2012,03,15,07,42,0.00
2012,03,15,07,43,0.00
2012,03,15,07,44,0.00
2012,03,15,07,45,0.00
2012,03,15,07,46,0.00
2012,03,15,07,47,0.00
2012,03,15,07,48,3.40
2012,03,15,07,49,5.00
2012,03,15,07,50,5.00
2012,03,15,07,51,5.00
2012,03,15,07,52,5.00
2012,03,15,07,53,5.00
2012,03,15,07,54,5.00
2012,03,15,07,55,5.00
2012,03,15,07,56,6.20
2012,03,15,07,57,7.00
2012,03,15,07,58,8.60
2012,03,15,07,59,10.90
2012,03,15,08,00,12.30
2012,03,15,08,01,14.00
2012,03,15,08,02,14.00
2012,03,15,08,03,14.90
2012,03,15,08,04,16.00
2012,03,15,08,05,16.00
2012,03,15,08,06,16.00
2012,03,15,08,07,17.70
2012,03,15,08,08,18.00
2012,03,15,08,09,18.10
2012,03,15,08,10,19.00
2012,03,15,08,11,19.70
2012,03,15,08,12,22.00
2012,03,15,08,13,24.10
2012,03,15,08,14,25.70
2012,03,15,08,15,27.50
2012,03,15,08,16,29.70
2012,03,15,08,17,32.20
2012,03,15,08,18,51.40
2012,03,15,08,19,53.30
2012,03,15,08,20,53.60
2012,03,15,08,21,50.90
2012,03,15,08,22,47.80
2012,03,15,08,23,48.40
2012,03,15,08,24,50.60
2012,03,15,08,25,51.00
2012,03,15,08,26,50.80
2012,03,15,08,27,49.00
2012,03,15,08,28,49.00
2012,03,15,08,29,48.20
2012,03,15,08,30,47.00
2012,03,15,08,31,46.30
2012,03,15,08,32,44.50
2012,03,15,08,33,42.30
2012,03,15,08,34,40.00
2012,03,15,08,35,40.00
2012,03,15,08,36,40.50
2012,03,15,08,37,42.00
2012,03,15,08,38,42.00
2012,03,15,08,39,43.20
2012,03,15,08,40,44.00
2012,03,15,08,41,42.40
2012,03,15,08,42,39.30
2012,03,15,08,43,35.40
2012,03,15,08,44,40.00
2012,03,15,08,45,45.50
2012,03,15,08,46,51.10
2012,03,15,08,47,57.00
2012,03,15,08,48,62.00
2012,03,15,08,49,63.00
2012,03,15,08,50,63.00
2012,03,15,08,51,54.20
2012,03,15,08,52,48.50
2012,03,15,08,53,46.00
2012,03,15,08,54,47.20
2012,03,15,08,55,51.40
2012,03,15,08,56,56.20
2012,03,15,08,57,58.00
2012,03,15,08,58,55.00
2012,03,15,08,59,53.20
2012,03,15,09,00,53.10
2012,03,15,09,01,54.80
2012,03,15,09,02,57.40
2012,03,15,09,03,54.80
2012,03,15,09,04,51.90
2012,03,15,09,05,49.80
2012,03,15,09,06,47.60
2012,03,15,09,07,47.00
2012,03,15,09,08,47.10
2012,03,15,09,09,49.60
2012,03,15,09,10,54.20
2012,03,15,09,11,59.50
2012,03,15,09,12,63.90
2012,03,15,09,13,66.10
2012,03,15,09,14,68.40
2012,03,15,09,15,69.00
2012,03,15,09,16,67.20
2012,03,15,09,17,63.30
2012,03,15,09,18,65.00
2012,03,15,09,19,65.60
2012,03,15,09,20,66.30
2012,03,15,09,21,64.00
2012,03,15,09,22,62.40
2012,03,15,09,23,62.70
2012,03,15,09,24,62.20
2012,03,15,09,25,62.00
2012,03,15,09,26,60.00
2012,03,15,09,27,60.40
2012,03,15,09,28,63.50
2012,03,15,09,29,68.20
2012,03,15,09,30,71.10
2012,03,15,09,31,70.80
2012,03,15,09,32,69.30
2012,03,15,09,33,69.00
2012,03,15,09,34,69.20
2012,03,15,09,35,72.00
2012,03,15,09,36,76.50
2012,03,15,09,37,91.10
2012,03,15,09,38,93.00
2012,03,15,09,39,91.90
2012,03,15,09,40,92.40
2012,03,15,09,41,96.20
2012,03,15,09,42,104.20
2012,03,15,09,43,118.70
2012,03,15,09,44,125.60
2012,03,15,09,45,129.20
2012,03,15,09,46,134.60
2012,03,15,09,47,145.00
2012,03,15,09,48,163.40
2012,03,15,09,49,168.10
2012,03,15,09,50,167.00
2012,03,15,09,51,176.90
2012,03,15,09,52,214.40
2012,03,15,09,53,234.40
2012,03,15,09,54,245.30
2012,03,15,09,55,286.30
2012,03,15,09,56,328.60
2012,03,15,09,57,365.60
2012,03,15,09,58,374.50
2012,03,15,09,59,389.20
2012,03,15,10,00,396.00
2012,03,15,10,01,421.20
2012,03,15,10,02,465.40
2012,03,15,10,03,500.00
2012,03,15,10,04,516.00
2012,03,15,10,05,529.60
2012,03,15,10,06,543.70
2012,03,15,10,07,556.50
2012,03,15,10,08,577.90
2012,03,15,10,09,604.90
2012,03,15,10,10,620.90
2012,03,15,10,11,623.90
2012,03,15,10,12,628.20
2012,03,15,10,13,612.00
2012,03,15,10,14,612.00
2012,03,15,10,15,612.00
2012,03,15,10,16,282.70
2012,03,15,10,17,221.20
2012,03,15,10,18,188.40
2012,03,15,10,19,174.50
2012,03,15,10,20,157.40
2012,03,15,10,21,141.40
2012,03,15,10,22,120.40
2012,03,15,10,23,99.80
2012,03,15,10,24,86.30
2012,03,15,10,25,84.00
2012,03,15,10,26,73.80
2012,03,15,10,27,71.60
2012,03,15,10,28,69.10
2012,03,15,10,29,67.00
2012,03,15,10,30,67.00
2012,03,15,10,31,67.00
2012,03,15,10,32,67.00
2012,03,15,10,33,68.60
2012,03,15,10,34,69.30
2012,03,15,10,35,76.80
2012,03,15,10,36,83.50
2012,03,15,10,37,98.30
2012,03,15,10,38,117.00
2012,03,15,10,39,130.80
2012,03,15,10,40,144.10
2012,03,15,10,41,174.50
2012,03,15,10,42,216.10
2012,03,15,10,43,238.10
2012,03,15,10,44,240.80
2012,03,15,10,45,249.60
2012,03,15,10,46,259.60
2012,03,15,10,47,278.50
2012,03,15,10,48,262.40
2012,03,15,10,49,222.90
2012,03,15,10,50,196.20
2012,03,15,10,51,181.60
2012,03,15,10,52,180.20
2012,03,15,10,53,175.20
2012,03,15,10,54,176.40
2012,03,15,10,55,186.00
2012,03,15,10,56,223.70
2012,03,15,10,57,279.50
2012,03,15,10,58,306.20
2012,03,15,10,59,328.90
2012,03,15,11,00,370.50
2012,03,15,11,01,385.80
2012,03,15,11,02,319.10
2012,03,15,11,03,306.10
2012,03,15,11,04,295.60
2012,03,15,11,05,307.20
2012,03,15,11,06,325.10
2012,03,15,11,07,329.00
2012,03,15,11,08,323.00
2012,03,15,11,09,337.60
2012,03,15,11,10,410.00
2012,03,15,11,11,401.70
2012,03,15,11,12,421.80
2012,03,15,11,13,478.00
2012,03,15,11,14,611.90
2012,03,15,11,15,614.00
2012,03,15,11,16,584.00
2012,03,15,11,17,584.00
2012,03,15,11,18,584.00
2012,03,15,11,19,584.00
2012,03,15,11,20,513.00
2012,03,15,11,21,371.50
2012,03,15,11,22,346.80
2012,03,15,11,23,327.50
2012,03,15,11,24,324.50
2012,03,15,11,25,360.70
2012,03,15,11,26,338.50
2012,03,15,11,27,299.10
2012,03,15,11,28,280.20
2012,03,15,11,29,276.20
2012,03,15,11,30,325.00
2012,03,15,11,31,367.00
2012,03,15,11,32,367.00
2012,03,15,11,33,249.40
2012,03,15,11,34,209.40
2012,03,15,11,35,199.80
2012,03,15,11,36,206.50
2012,03,15,11,37,216.20
2012,03,15,11,38,219.80
2012,03,15,11,39,224.10
2012,03,15,11,40,234.20
2012,03,15,11,41,237.00
2012,03,15,11,42,199.00
2012,03,15,11,43,188.70
2012,03,15,11,44,203.20
2012,03,15,11,45,238.10
2012,03,15,11,46,276.20
2012,03,15,11,47,306.00
2012,03,15,11,48,318.00
2012,03,15,11,49,359.20
2012,03,15,11,50,437.60
2012,03,15,11,51,531.40
2012,03,15,11,52,554.00
2012,03,15,11,53,552.20
2012,03,15,11,54,569.50
2012,03,15,11,55,625.30
2012,03,15,11,56,638.00
2012,03,15,11,57,639.20
2012,03,15,11,58,642.10
2012,03,15,11,59,644.70
2012,03,15,12,00,651.20
2012,03,15,12,01,641.40
2012,03,15,12,02,615.90
2012,03,15,12,03,547.00
2012,03,15,12,04,578.00
2012,03,15,12,05,630.80
2012,03,15,12,06,651.20
2012,03,15,12,07,659.00
2012,03,15,12,08,659.00
2012,03,15,12,09,639.00
2012,03,15,12,10,645.80
2012,03,15,12,11,655.40
2012,03,15,12,12,628.60
2012,03,15,12,13,664.00
2012,03,15,12,14,664.00
2012,03,15,12,15,671.70
2012,03,15,12,16,669.40
2012,03,15,12,17,645.50
2012,03,15,12,18,631.90
2012,03,15,12,19,554.00
2012,03,15,12,20,538.00
2012,03,15,12,21,606.80
2012,03,15,12,22,694.60
2012,03,15,12,23,695.80
2012,03,15,12,24,700.00
2012,03,15,12,25,713.30
2012,03,15,12,26,712.20
2012,03,15,12,27,705.80
2012,03,15,12,28,673.20
2012,03,15,12,29,685.90
2012,03,15,12,30,660.50
2012,03,15,12,31,590.00
2012,03,15,12,32,568.00
2012,03,15,12,33,500.90
2012,03,15,12,34,483.00
2012,03,15,12,35,591.00
2012,03,15,12,36,619.40
2012,03,15,12,37,731.70
2012,03,15,12,38,699.00
2012,03,15,12,39,628.50
2012,03,15,12,40,570.00
2012,03,15,12,41,578.80
2012,03,15,12,42,643.20
2012,03,15,12,43,590.00
2012,03,15,12,44,673.20
2012,03,15,12,45,711.80
2012,03,15,12,46,721.70
2012,03,15,12,47,656.10
2012,03,15,12,48,576.40
2012,03,15,12,49,563.40
2012,03,15,12,50,517.00
2012,03,15,12,51,497.00
2012,03,15,12,52,534.00
2012,03,15,12,53,573.20
2012,03,15,12,54,728.00
2012,03,15,12,55,750.80
2012,03,15,12,56,778.30
2012,03,15,12,57,784.60
2012,03,15,12,58,804.30
2012,03,15,12,59,786.40
2012,03,15,13,00,805.00
2012,03,15,13,01,742.20
2012,03,15,13,02,786.00
2012,03,15,13,03,786.00
2012,03,15,13,04,690.40
2012,03,15,13,05,520.50
2012,03,15,13,06,436.80
2012,03,15,13,07,406.00
2012,03,15,13,08,406.00
2012,03,15,13,09,396.40
2012,03,15,13,10,224.40
2012,03,15,13,11,237.10
2012,03,15,13,12,250.00
2012,03,15,13,13,250.00
2012,03,15,13,14,422.60
2012,03,15,13,15,570.20
2012,03,15,13,16,645.50
2012,03,15,13,17,668.00
2012,03,15,13,18,639.00
2012,03,15,13,19,385.60
2012,03,15,13,20,401.70
2012,03,15,13,21,312.70
2012,03,15,13,22,267.40
2012,03,15,13,23,257.00
2012,03,15,13,24,257.00
2012,03,15,13,25,310.10
2012,03,15,13,26,393.50
2012,03,15,13,27,373.70
2012,03,15,13,28,331.30
2012,03,15,13,29,310.00
2012,03,15,13,30,282.60
2012,03,15,13,31,249.80
2012,03,15,13,32,217.40
2012,03,15,13,33,192.20
2012,03,15,13,34,174.40
2012,03,15,13,35,150.90
2012,03,15,13,36,125.00
2012,03,15,13,37,109.20
2012,03,15,13,38,96.10
2012,03,15,13,39,95.40
2012,03,15,13,40,96.20
2012,03,15,13,41,90.10
2012,03,15,13,42,84.80
2012,03,15,13,43,87.60
2012,03,15,13,44,79.40
2012,03,15,13,45,68.90
2012,03,15,13,46,64.30
2012,03,15,13,47,63.00
2012,03,15,13,48,63.00
2012,03,15,13,49,61.00
2012,03,15,13,50,58.60
2012,03,15,13,51,56.40
2012,03,15,13,52,54.10
2012,03,15,13,53,53.80
2012,03,15,13,54,53.20
2012,03,15,13,55,54.00
2012,03,15,13,56,55.80
2012,03,15,13,57,60.30
2012,03,15,13,58,60.60
2012,03,15,13,59,57.00
2012,03,15,14,00,53.50
2012,03,15,14,01,53.00
2012,03,15,14,02,53.00
2012,03,15,14,03,53.30
2012,03,15,14,04,55.60
2012,03,15,14,05,61.70
2012,03,15,14,06,70.40
2012,03,15,14,07,86.50
2012,03,15,14,08,120.60
2012,03,15,14,09,156.80
2012,03,15,14,10,159.20
2012,03,15,14,11,159.20
2012,03,15,14,12,190.00
2012,03,15,14,13,216.00
2012,03,15,14,14,265.50
2012,03,15,14,15,293.60
2012,03,15,14,16,254.80
2012,03,15,14,17,247.60
2012,03,15,14,18,287.90
2012,03,15,14,19,290.00
2012,03,15,14,20,444.50
2012,03,15,14,21,805.00
2012,03,15,14,22,805.00
2012,03,15,14,23,805.00
2012,03,15,14,24,539.00
2012,03,15,14,25,425.00
2012,03,15,14,26,425.00
2012,03,15,14,27,408.70
2012,03,15,14,28,271.20
2012,03,15,14,29,317.90
2012,03,15,14,30,371.40
2012,03,15,14,31,417.00
2012,03,15,14,32,417.00
2012,03,15,14,33,417.00
2012,03,15,14,34,417.00
2012,03,15,14,35,231.30
2012,03,15,14,36,224.40
2012,03,15,14,37,248.70
2012,03,15,14,38,260.60
2012,03,15,14,39,297.60
2012,03,15,14,40,346.00
2012,03,15,14,41,462.20
2012,03,15,14,42,512.00
2012,03,15,14,43,295.20
2012,03,15,14,44,323.90
2012,03,15,14,45,395.60
2012,03,15,14,46,372.40
2012,03,15,14,47,392.00
2012,03,15,14,48,495.00
2012,03,15,14,49,658.60
2012,03,15,14,50,698.90
2012,03,15,14,51,691.40
2012,03,15,14,52,699.20
2012,03,15,14,53,699.50
2012,03,15,14,54,741.00
2012,03,15,14,55,777.00
2012,03,15,14,56,777.00
2012,03,15,14,57,777.00
2012,03,15,14,58,790.30
2012,03,15,14,59,796.00
2012,03,15,15,00,294.70
2012,03,15,15,01,304.40
2012,03,15,15,02,348.00
2012,03,15,15,03,369.50
2012,03,15,15,04,434.00
2012,03,15,15,05,434.00
2012,03,15,15,06,471.60
2012,03,15,15,07,499.00
2012,03,15,15,08,339.00
2012,03,15,15,09,301.70
2012,03,15,15,10,319.40
2012,03,15,15,11,476.00
2012,03,15,15,12,476.00
2012,03,15,15,13,402.40
2012,03,15,15,14,270.00
2012,03,15,15,15,236.60
2012,03,15,15,16,215.50
2012,03,15,15,17,213.60
2012,03,15,15,18,219.60
2012,03,15,15,19,218.00
2012,03,15,15,20,202.50
2012,03,15,15,21,150.80
2012,03,15,15,22,137.90
2012,03,15,15,23,129.10
2012,03,15,15,24,120.40
2012,03,15,15,25,111.20
2012,03,15,15,26,100.90
2012,03,15,15,27,87.40
2012,03,15,15,28,75.50
2012,03,15,15,29,69.00
2012,03,15,15,30,68.20
2012,03,15,15,31,70.50
2012,03,15,15,32,71.50
2012,03,15,15,33,67.80
2012,03,15,15,34,65.40
2012,03,15,15,35,62.00
2012,03,15,15,36,54.90
2012,03,15,15,37,47.20
2012,03,15,15,38,41.30
2012,03,15,15,39,40.00
2012,03,15,15,40,41.10
2012,03,15,15,41,44.60
2012,03,15,15,42,49.80
2012,03,15,15,43,55.20
2012,03,15,15,44,54.60
2012,03,15,15,45,47.30
2012,03,15,15,46,74.70
2012,03,15,15,47,87.20
2012,03,15,15,48,84.50
2012,03,15,15,49,84.80
2012,03,15,15,50,94.40
2012,03,15,15,51,105.20
2012,03,15,15,52,104.30
2012,03,15,15,53,96.80
2012,03,15,15,54,97.40
2012,03,15,15,55,114.50
2012,03,15,15,56,138.40
2012,03,15,15,57,158.50
2012,03,15,15,58,184.60
2012,03,15,15,59,216.60
2012,03,15,16,00,242.00
2012,03,15,16,01,247.60
2012,03,15,16,02,240.20
2012,03,15,16,03,235.00
2012,03,15,16,04,225.40
2012,03,15,16,05,213.00
2012,03,15,16,06,205.90
2012,03,15,16,07,201.30
2012,03,15,16,08,205.20
2012,03,15,16,09,246.50
2012,03,15,16,10,265.20
2012,03,15,16,11,262.40
2012,03,15,16,12,255.70
2012,03,15,16,13,290.60
2012,03,15,16,14,292.00
2012,03,15,16,15,283.00
2012,03,15,16,16,343.20
2012,03,15,16,17,361.00
2012,03,15,16,18,352.50
2012,03,15,16,19,224.60
2012,03,15,16,20,197.90
2012,03,15,16,21,192.40
2012,03,15,16,22,206.50
2012,03,15,16,23,240.10
2012,03,15,16,24,260.10
2012,03,15,16,25,269.30
2012,03,15,16,26,284.60
2012,03,15,16,27,292.20
2012,03,15,16,28,384.70
2012,03,15,16,29,390.10
2012,03,15,16,30,408.00
2012,03,15,16,31,408.00
2012,03,15,16,32,471.00
2012,03,15,16,33,498.30
2012,03,15,16,34,484.80
2012,03,15,16,35,478.50
2012,03,15,16,36,475.70
2012,03,15,16,37,472.20
2012,03,15,16,38,467.20
2012,03,15,16,39,464.00
2012,03,15,16,40,457.40
2012,03,15,16,41,443.20
2012,03,15,16,42,418.00
2012,03,15,16,43,406.60
2012,03,15,16,44,406.60
2012,03,15,16,45,387.00
2012,03,15,16,46,413.50
2012,03,15,16,47,428.90
2012,03,15,16,48,433.70
2012,03,15,16,49,410.70
2012,03,15,16,50,387.20
2012,03,15,16,51,383.00
2012,03,15,16,52,320.00
2012,03,15,16,53,292.60
2012,03,15,16,54,277.60
2012,03,15,16,55,314.50
2012,03,15,16,56,345.70
2012,03,15,16,57,353.90
2012,03,15,16,58,345.80
2012,03,15,16,59,322.20
2012,03,15,17,00,310.00
2012,03,15,17,01,310.90
2012,03,15,17,02,342.70
2012,03,15,17,03,310.20
2012,03,15,17,04,289.00
2012,03,15,17,05,287.50
2012,03,15,17,06,310.50
2012,03,15,17,07,317.00
2012,03,15,17,08,343.60
2012,03,15,17,09,355.00
2012,03,15,17,10,338.10
2012,03,15,17,11,299.40
2012,03,15,17,12,281.00
2012,03,15,17,13,299.50
2012,03,15,17,14,342.60
2012,03,15,17,15,347.80
2012,03,15,17,16,340.80
2012,03,15,17,17,351.80
2012,03,15,17,18,345.00
2012,03,15,17,19,322.10
2012,03,15,17,20,297.80
2012,03,15,17,21,265.50
2012,03,15,17,22,265.60